Tracking 25612 objects as of 19-May-2022
HD Live streaming from Space Station
objects crossing your sky now

FLOCK 4X 25

Track FLOCK 4X 25 now!
10-day predictions


NORAD ID: 51016
Int'l Code: 2022-002AJ
Perigee: 520.0 km
Apogee: 538.4 km
Inclination: 97.5 °
Period: 95.1 minutes
Semi major axis: 6900 km
RCS: Unknown
Launch date: January 13, 2022
Source: United States (US)
Launch site: AIR FORCE EASTERN TEST RANGE (AFETR)
aabbcc
Your satellite tracking list
Your tracking list is empty




NASA's NSSDC Master Catalog

Two Line Element Set (TLE):
1 51016U 22002AJ  22139.16545938  .00009919  00000-0  53868-3 0  9998
2 51016  97.4875 206.8331 0013393 168.4963 191.6578 15.14644201 18996
Source of the keplerian elements: AFSPC